| time (UTC) | temp F | wind direction | speed MPH | gust MPH | rain 1hr in | rain 24hr in | rain mn in | humidity % | barometer mb |
| 20260504184504 | 73 | 139 | 0.0 | 13.0 | 0.00 | 0.00 | 0.00 | 33 | 1010.8 |
| 20260504184008 | 72 | 122 | 1.0 | 13.0 | 0.00 | 0.00 | 0.00 | 32 | 1010.9 |
| 20260504183505 | 73 | 77 | 2.0 | 9.0 | 0.00 | 0.00 | 0.00 | 31 | 1011.1 |
| 20260504183007 | 73 | 140 | 0.0 | 9.0 | 0.00 | 0.00 | 0.00 | 32 | 1011.0 |
| 20260504182504 | 73 | 124 | 1.0 | 13.0 | 0.00 | 0.00 | 0.00 | 31 | 1011.2 |
| 20260504182010 | 73 | 165 | 2.0 | 13.0 | 0.00 | 0.00 | 0.00 | 31 | 1011.2 |
| 20260504181513 | 72 | 124 | 0.0 | 12.0 | 0.00 | 0.00 | 0.00 | 31 | 1011.0 |
| 20260504181007 | 73 | 127 | 2.0 | 12.0 | 0.00 | 0.00 | 0.00 | 32 | 1011.2 |
| 20260504180509 | 72 | 206 | 0.0 | 12.0 | 0.00 | 0.00 | 0.00 | 32 | 1011.3 |
| 20260504180019 | 72 | 128 | 2.0 | 12.0 | 0.00 | 0.00 | 0.00 | 32 | 1011.5 |
| 20260504175507 | 72 | 148 | 3.0 | 12.0 | 0.00 | 0.00 | 0.00 | 32 | 1011.6 |
| 20260504175007 | 73 | 106 | 0.0 | 10.0 | 0.00 | 0.00 | 0.00 | 33 | 1011.6 |
| 20260504174523 | 72 | 120 | 0.0 | 10.0 | 0.00 | 0.00 | 0.00 | 31 | 1011.6 |
| 20260504174008 | 72 | 77 | 1.0 | 10.0 | 0.00 | 0.00 | 0.00 | 31 | 1011.8 |
| 20260504173509 | 72 | 61 | 0.0 | 14.0 | 0.00 | 0.00 | 0.00 | 33 | 1011.8 |
| 20260504173025 | 72 | 127 | 2.0 | 12.0 | 0.00 | 0.00 | 0.00 | 31 | 1011.8 |
| 20260504172510 | 71 | 127 | 0.0 | 7.0 | 0.00 | 0.00 | 0.00 | 32 | 1011.9 |
| 20260504172003 | 71 | 134 | 1.0 | 11.0 | 0.00 | 0.00 | 0.00 | 32 | 1012.0 |
| 20260504171531 | 71 | 94 | 0.0 | 11.0 | 0.00 | 0.00 | 0.00 | 32 | 1011.9 |
| 20260504171005 | 71 | 123 | 0.0 | 12.0 | 0.00 | 0.00 | 0.00 | 33 | 1012.1 |
| 20260504170508 | 71 | 105 | 1.0 | 15.0 | 0.00 | 0.00 | 0.00 | 31 | 1012.1 |
| 20260504151004 | 67 | 94 | 2.0 | 11.0 | 0.00 | 0.00 | 0.00 | 37 | 1013.5 |
| 20260504150503 | 68 | 81 | 0.0 | 6.0 | 0.00 | 0.00 | 0.00 | 40 | 1013.5 |
| 20260504141002 | 64 | 151 | 0.0 | 3.0 | 0.00 | 0.00 | 0.00 | 51 | 1013.7 |
| 20260504140503 | 63 | 164 | 0.0 | 1.0 | 0.00 | 0.00 | 0.00 | 50 | 1013.7 |
| 20260504130503 | 59 | 84 | 1.0 | 11.0 | 0.00 | 0.00 | 0.00 | 58 | 1014.0 |
| 20260504110504 | 41 | 119 | 0.0 | 0.0 | 0.00 | 0.00 | 0.00 | 38 | 1014.7 |
| 20260504100503 | 35 | 117 | 0.0 | 0.0 | 0.00 | 0.00 | 0.00 | 31 | 1014.4 |
| 20260504082005 | 37 | 118 | 0.0 | 0.0 | 0.00 | 0.00 | 0.00 | 47 | 1014.5 |
| 20260504081511 | 37 | 118 | 0.0 | 0.0 | 0.00 | 0.00 | 0.00 | 49 | 1014.5 |
| 20260504081004 | 37 | 118 | 0.0 | 0.0 | 0.00 | 0.00 | 0.00 | 49 | 1014.5 |
| 20260504080504 | 37 | 118 | 0.0 | 0.0 | 0.00 | 0.00 | 0.00 | 48 | 1014.5 |
| 20260504050505 | 41 | 118 | 0.0 | 0.0 | 0.00 | 0.00 | 0.00 | 72 | 1014.5 |
| 20260504050019 | 41 | 118 | 0.0 | 0.0 | 0.00 | 0.00 | 0.00 | 72 | 1014.4 |
| 20260504045504 | 41 | 118 | 0.0 | 0.0 | 0.00 | 0.00 | 0.00 | 72 | 1014.3 |
| 20260504045003 | 41 | 118 | 0.0 | 0.0 | 0.00 | 0.00 | 0.00 | 72 | 1014.4 |
| 20260504044505 | 41 | 118 | 0.0 | 0.0 | 0.00 | 0.00 | 0.00 | 72 | 1014.4 |
| 20260504044003 | 41 | 118 | 0.0 | 0.0 | 0.00 | 0.00 | 0.00 | 71 | 1014.4 |
| 20260504043504 | 41 | 118 | 0.0 | 0.0 | 0.00 | 0.00 | 0.00 | 71 | 1014.3 |
| 20260504043004 | 42 | 118 | 0.0 | 0.0 | 0.00 | 0.00 | 0.00 | 70 | 1014.3 |
| 20260504042503 | 42 | 118 | 0.0 | 0.0 | 0.00 | 0.00 | 0.00 | 69 | 1014.2 |
| 20260504042005 | 43 | 118 | 0.0 | 0.0 | 0.00 | 0.00 | 0.00 | 69 | 1014.1 |
| 20260504041508 | 43 | 118 | 0.0 | 0.0 | 0.00 | 0.00 | 0.00 | 69 | 1014.0 |
| 20260504041004 | 44 | 118 | 0.0 | 0.0 | 0.00 | 0.00 | 0.00 | 70 | 1013.9 |
| 20260504040504 | 44 | 118 | 0.0 | 0.0 | 0.00 | 0.00 | 0.00 | 69 | 1013.9 |
| 20260504040022 | 44 | 118 | 0.0 | 0.0 | 0.00 | 0.00 | 0.00 | 69 | 1013.9 |
| 20260504035505 | 44 | 118 | 0.0 | 0.0 | 0.00 | 0.00 | 0.00 | 68 | 1013.8 |
| 20260504035008 | 45 | 118 | 0.0 | 0.0 | 0.00 | 0.00 | 0.00 | 65 | 1013.8 |
| 20260504034520 | 46 | 118 | 0.0 | 0.0 | 0.00 | 0.00 | 0.00 | 63 | 1013.7 |
| 20260504034007 | 46 | 118 | 0.0 | 0.0 | 0.00 | 0.00 | 0.00 | 60 | 1013.7 |
| 20260504033503 | 47 | 118 | 0.0 | 0.0 | 0.00 | 0.00 | 0.00 | 58 | 1013.8 |
| 20260504033003 | 48 | 118 | 0.0 | 0.0 | 0.00 | 0.00 | 0.00 | 57 | 1013.7 |
| 20260504032503 | 48 | 118 | 0.0 | 0.0 | 0.00 | 0.00 | 0.00 | 56 | 1013.6 |
| 20260504032007 | 48 | 118 | 0.0 | 0.0 | 0.00 | 0.00 | 0.00 | 55 | 1013.6 |
| 20260504031511 | 49 | 118 | 0.0 | 0.0 | 0.00 | 0.00 | 0.00 | 55 | 1013.6 |
| 20260504031006 | 49 | 127 | 0.0 | 0.0 | 0.00 | 0.00 | 0.00 | 54 | 1013.6 |
| 20260504030515 | 49 | 128 | 0.0 | 0.0 | 0.00 | 0.00 | 0.00 | 54 | 1013.6 |
| 20260504030023 | 48 | 128 | 0.0 | 0.0 | 0.00 | 0.00 | 0.00 | 55 | 1013.5 |
| 20260504025503 | 48 | 127 | 0.0 | 0.0 | 0.00 | 0.00 | 0.00 | 57 | 1013.5 |
| 20260504025006 | 47 | 109 | 0.0 | 0.0 | 0.00 | 0.00 | 0.00 | 59 | 1013.6 |
| 20260504024548 | 47 | 129 | 0.0 | 0.0 | 0.00 | 0.00 | 0.00 | 59 | 1013.6 |
| 20260504024007 | 47 | 125 | 0.0 | 0.0 | 0.00 | 0.00 | 0.00 | 60 | 1013.5 |
| 20260504023514 | 47 | 122 | 0.0 | 0.0 | 0.00 | 0.00 | 0.00 | 60 | 1013.6 |
| 20260504023047 | 47 | 122 | 0.0 | 0.0 | 0.00 | 0.00 | 0.00 | 61 | 1013.6 |
| 20260504022509 | 47 | 120 | 0.0 | 0.0 | 0.00 | 0.00 | 0.00 | 61 | 1013.6 |
| 20260504022007 | 47 | 120 | 0.0 | 0.0 | 0.00 | 0.00 | 0.00 | 59 | 1013.6 |
| 20260504021504 | 47 | 120 | 0.0 | 0.0 | 0.00 | 0.00 | 0.00 | 58 | 1013.6 |
| 20260504021003 | 47 | 120 | 0.0 | 0.0 | 0.00 | 0.00 | 0.00 | 58 | 1013.6 |
| 20260504020503 | 47 | 120 | 0.0 | 0.0 | 0.00 | 0.00 | 0.00 | 62 | 1013.6 |
| 20260504020012 | 48 | 120 | 0.0 | 0.0 | 0.00 | 0.00 | 0.00 | 60 | 1013.5 |
| 20260504015503 | 48 | 120 | 0.0 | 0.0 | 0.00 | 0.00 | 0.00 | 57 | 1013.5 |
| 20260504015004 | 49 | 120 | 0.0 | 0.0 | 0.00 | 0.00 | 0.00 | 53 | 1013.5 |
| 20260504014512 | 49 | 120 | 0.0 | 0.0 | 0.00 | 0.00 | 0.00 | 52 | 1013.5 |
| 20260504014008 | 50 | 120 | 0.0 | 0.0 | 0.00 | 0.00 | 0.00 | 51 | 1013.5 |
| 20260504013508 | 50 | 120 | 0.0 | 0.0 | 0.00 | 0.00 | 0.00 | 49 | 1013.4 |
| 20260504013018 | 50 | 120 | 0.0 | 0.0 | 0.00 | 0.00 | 0.00 | 50 | 1013.4 |
| 20260504012510 | 50 | 120 | 0.0 | 0.0 | 0.00 | 0.00 | 0.00 | 49 | 1013.3 |
| 20260504012011 | 50 | 120 | 0.0 | 0.0 | 0.00 | 0.00 | 0.00 | 48 | 1013.3 |
| 20260504011524 | 51 | 120 | 0.0 | 0.0 | 0.00 | 0.00 | 0.00 | 49 | 1013.2 |
| 20260504011008 | 51 | 120 | 0.0 | 0.0 | 0.00 | 0.00 | 0.00 | 48 | 1013.2 |
| 20260504010507 | 52 | 120 | 0.0 | 0.0 | 0.00 | 0.00 | 0.00 | 47 | 1013.2 |
| 20260504010005 | 52 | 120 | 0.0 | 0.0 | 0.00 | 0.00 | 0.00 | 46 | 1013.1 |
| 20260504005504 | 52 | 120 | 0.0 | 0.0 | 0.00 | 0.00 | 0.00 | 46 | 1013.0 |
| 20260504005003 | 53 | 121 | 0.0 | 0.0 | 0.00 | 0.00 | 0.00 | 44 | 1012.8 |
| 20260504004510 | 53 | 122 | 0.0 | 0.0 | 0.00 | 0.00 | 0.00 | 43 | 1012.8 |
| 20260504004011 | 53 | 115 | 0.0 | 0.0 | 0.00 | 0.00 | 0.00 | 43 | 1012.8 |
| 20260504003503 | 54 | 113 | 0.0 | 0.0 | 0.00 | 0.00 | 0.00 | 43 | 1012.7 |
| 20260504003013 | 54 | 134 | 0.0 | 0.0 | 0.00 | 0.00 | 0.00 | 42 | 1012.7 |
| 20260504002503 | 54 | 95 | 0.0 | 0.0 | 0.00 | 0.00 | 0.00 | 42 | 1012.5 |
| 20260504002007 | 55 | 96 | 0.0 | 0.0 | 0.00 | 0.00 | 0.00 | 40 | 1012.5 |
| 20260504001518 | 56 | 110 | 0.0 | 0.0 | 0.00 | 0.00 | 0.00 | 39 | 1012.4 |
| 20260504001006 | 55 | 102 | 0.0 | 1.0 | 0.00 | 0.00 | 0.00 | 39 | 1012.4 |
| 20260504000507 | 56 | 113 | 0.0 | 1.0 | 0.00 | 0.00 | 0.00 | 39 | 1012.3 |
| 20260504000022 | 56 | 105 | 0.0 | 0.0 | 0.00 | 0.00 | 0.00 | 39 | 1012.3 |
| 20260503235507 | 56 | 99 | 0.0 | 0.0 | 0.00 | 0.00 | 0.00 | 37 | 1012.2 |
| 20260503235007 | 57 | 121 | 0.0 | 0.0 | 0.00 | 0.00 | 0.00 | 38 | 1012.2 |
| 20260503234508 | 57 | 124 | 0.0 | 0.0 | 0.00 | 0.00 | 0.00 | 36 | 1012.2 |
| 20260503234004 | 58 | 114 | 0.0 | 0.0 | 0.00 | 0.00 | 0.00 | 35 | 1012.1 |
| 20260503233504 | 58 | 118 | 0.0 | 0.0 | 0.00 | 0.00 | 0.00 | 36 | 1012.1 |
| 20260503233010 | 59 | 120 | 0.0 | 0.0 | 0.00 | 0.00 | 0.00 | 34 | 1012.1 |
| 20260503232504 | 59 | 130 | 0.0 | 0.0 | 0.00 | 0.00 | 0.00 | 33 | 1012.1 |
| 20260503232004 | 59 | 124 | 0.0 | 5.0 | 0.00 | 0.00 | 0.00 | 32 | 1012.1 |
| 20260503231517 | 59 | 131 | 0.0 | 7.0 | 0.00 | 0.00 | 0.00 | 32 | 1012.2 |
| 20260503231008 | 60 | 119 | 0.0 | 7.0 | 0.00 | 0.00 | 0.00 | 32 | 1012.1 |
| 20260503230512 | 60 | 146 | 0.0 | 7.0 | 0.00 | 0.00 | 0.00 | 32 | 1012.0 |
| 20260503230023 | 60 | 124 | 0.0 | 5.0 | 0.00 | 0.00 | 0.00 | 31 | 1012.0 |
| 20260503225507 | 61 | 136 | 0.0 | 5.0 | 0.00 | 0.00 | 0.00 | 31 | 1011.9 |
| 20260503225006 | 61 | 131 | 0.0 | 5.0 | 0.00 | 0.00 | 0.00 | 31 | 1012.0 |
| 20260503224524 | 61 | 135 | 0.0 | 7.0 | 0.00 | 0.00 | 0.00 | 30 | 1012.0 |
| 20260503224008 | 61 | 137 | 0.0 | 7.0 | 0.00 | 0.00 | 0.00 | 30 | 1012.0 |
| 20260503223514 | 61 | 136 | 0.0 | 3.0 | 0.00 | 0.00 | 0.00 | 30 | 1012.0 |
| 20260503223024 | 61 | 143 | 0.0 | 11.0 | 0.00 | 0.00 | 0.00 | 29 | 1011.9 |
| 20260503222505 | 61 | 145 | 0.0 | 11.0 | 0.00 | 0.00 | 0.00 | 30 | 1012.0 |
| 20260503222004 | 61 | 172 | 1.0 | 8.0 | 0.00 | 0.00 | 0.00 | 29 | 1011.9 |
| 20260503221512 | 61 | 139 | 0.0 | 8.0 | 0.00 | 0.00 | 0.00 | 28 | 1011.9 |
| 20260503221013 | 61 | 118 | 1.0 | 15.0 | 0.00 | 0.00 | 0.00 | 28 | 1012.0 |
| 20260503220505 | 62 | 153 | 5.0 | 15.0 | 0.00 | 0.00 | 0.00 | 28 | 1011.9 |
| 20260503220036 | 62 | 146 | 0.0 | 10.0 | 0.00 | 0.00 | 0.00 | 28 | 1011.9 |
| 20260503215508 | 61 | 162 | 0.0 | 10.0 | 0.00 | 0.00 | 0.00 | 28 | 1012.0 |
| 20260503215007 | 62 | 189 | 1.0 | 10.0 | 0.00 | 0.00 | 0.00 | 29 | 1011.9 |
| 20260503214524 | 62 | 127 | 0.0 | 15.0 | 0.00 | 0.00 | 0.00 | 28 | 1011.8 |
| 20260503214009 | 61 | 141 | 0.0 | 15.0 | 0.00 | 0.00 | 0.00 | 28 | 1011.8 |
| 20260503213509 | 62 | 161 | 1.0 | 15.0 | 0.00 | 0.00 | 0.00 | 28 | 1011.8 |
| 20260503213026 | 62 | 130 | 0.0 | 13.0 | 0.00 | 0.00 | 0.00 | 28 | 1011.7 |
| 20260503212509 | 62 | 132 | 1.0 | 9.0 | 0.00 | 0.00 | 0.00 | 29 | 1011.8 |
| 20260503212008 | 61 | 127 | 0.0 | 12.0 | 0.00 | 0.00 | 0.00 | 28 | 1011.7 |
| 20260503211528 | 62 | 132 | 0.0 | 12.0 | 0.00 | 0.00 | 0.00 | 28 | 1011.8 |
| 20260503211004 | 61 | 124 | 0.0 | 8.0 | 0.00 | 0.00 | 0.00 | 29 | 1011.8 |
| 20260503210503 | 61 | 213 | 0.0 | 9.0 | 0.00 | 0.00 | 0.00 | 29 | 1011.8 |
| 20260503210014 | 62 | 249 | 0.0 | 9.0 | 0.00 | 0.00 | 0.00 | 29 | 1011.8 |
| 20260503205504 | 61 | 180 | 0.0 | 7.0 | 0.00 | 0.00 | 0.00 | 28 | 1011.8 |
| 20260503205005 | 61 | 115 | 0.0 | 12.0 | 0.00 | 0.00 | 0.00 | 28 | 1011.8 |
| 20260503204518 | 60 | 152 | 0.0 | 12.0 | 0.00 | 0.00 | 0.00 | 30 | 1011.9 |
| 20260503204009 | 61 | 104 | 1.0 | 10.0 | 0.00 | 0.00 | 0.00 | 29 | 1012.1 |
| 20260503203505 | 61 | 127 | 1.0 | 10.0 | 0.00 | 0.00 | 0.00 | 29 | 1012.0 |
| 20260503203029 | 61 | 150 | 1.0 | 10.0 | 0.00 | 0.00 | 0.00 | 30 | 1012.1 |
| 20260503202508 | 60 | 214 | 0.0 | 13.0 | 0.00 | 0.00 | 0.00 | 30 | 1012.1 |
| 20260503202010 | 61 | 151 | 0.0 | 13.0 | 0.00 | 0.00 | 0.00 | 30 | 1012.2 |
| 20260503201526 | 61 | 307 | 1.0 | 15.0 | 0.00 | 0.00 | 0.00 | 29 | 1012.2 |
| 20260503201011 | 60 | 106 | 1.0 | 15.0 | 0.00 | 0.00 | 0.00 | 29 | 1012.1 |
| 20260503200510 | 60 | 146 | 0.0 | 14.0 | 0.00 | 0.00 | 0.00 | 29 | 1012.3 |
| 20260503200028 | 60 | 176 | 3.0 | 14.0 | 0.00 | 0.00 | 0.00 | 29 | 1012.3 |
| 20260503195503 | 60 | 165 | 0.0 | 17.0 | 0.00 | 0.00 | 0.00 | 31 | 1012.3 |
| 20260503195005 | 59 | 96 | 5.0 | 17.0 | 0.00 | 0.00 | 0.00 | 30 | 1012.2 |
| 20260503194515 | 59 | 165 | 0.0 | 9.0 | 0.00 | 0.00 | 0.00 | 30 | 1012.3 |
| 20260503194007 | 59 | 101 | 0.0 | 9.0 | 0.00 | 0.00 | 0.00 | 30 | 1012.4 |
| 20260503193506 | 59 | 133 | 1.0 | 10.0 | 0.00 | 0.00 | 0.00 | 31 | 1012.4 |
| 20260503193021 | 59 | 192 | 2.0 | 10.0 | 0.00 | 0.00 | 0.00 | 30 | 1012.5 |
| 20260503192506 | 59 | 131 | 2.0 | 10.0 | 0.00 | 0.00 | 0.00 | 30 | 1012.5 |
| 20260503192009 | 61 | 187 | 0.0 | 12.0 | 0.00 | 0.00 | 0.00 | 29 | 1012.5 |
| 20260503191524 | 60 | 124 | 0.0 | 12.0 | 0.00 | 0.00 | 0.00 | 32 | 1012.6 |
| 20260503191010 | 59 | 267 | 0.0 | 12.0 | 0.00 | 0.00 | 0.00 | 31 | 1012.7 |
| 20260503190507 | 59 | 219 | 3.0 | 12.0 | 0.00 | 0.00 | 0.00 | 31 | 1012.7 |
| 20260503190030 | 59 | 183 | 1.0 | 12.0 | 0.00 | 0.00 | 0.00 | 30 | 1012.8 |
| 20260503185511 | 59 | 153 | 1.0 | 11.0 | 0.00 | 0.00 | 0.00 | 31 | 1012.7 |
| 20260503185007 | 58 | 141 | 1.0 | 13.0 | 0.00 | 0.00 | 0.00 | 31 | 1012.7 |